RYR24J EGPH-EGKK

Flight info

Callsign RYR24J
Flight time N/A
Altitude 35000
Route GOSAM P600 FENIK L612 NAVSO DCT ADZOP DCT EGTOC DCT KEPAD L151 DISIT
Aircraft B738/M-SDE2E3FGHIRWXY/LB1

Departure

Time 2026-04-24 15:50
Airport Edinburgh Airport (EGPH)

Arrival

Time N/A
Airport London Gatwick Airport (EGKK)
Time Latitude Longitude Altitude Speed Heading
2026-04-24 15:31 55.94907 -3.36498 115 ft 0 kts 148°
2026-04-24 15:43 55.94922 -3.36513 115 ft 4 kts 155°
2026-04-24 15:43 55.94947 -3.36528 114 ft 4 kts 176°
2026-04-24 15:43 55.94970 -3.36520 114 ft 4 kts 225°
2026-04-24 15:43 55.94976 -3.36510 111 ft 1 kts 239°
2026-04-24 15:45 55.94968 -3.36534 115 ft 6 kts 239°
2026-04-24 15:45 55.94939 -3.36619 115 ft 11 kts 239°
2026-04-24 15:46 55.94897 -3.36778 115 ft 14 kts 278°
2026-04-24 15:46 55.94914 -3.36931 115 ft 14 kts 241°
2026-04-24 15:46 55.94858 -3.37097 114 ft 19 kts 239°
2026-04-24 15:46 55.94779 -3.37327 114 ft 23 kts 239°
2026-04-24 15:47 55.94694 -3.37581 115 ft 24 kts 238°
2026-04-24 15:47 55.94605 -3.37844 115 ft 24 kts 239°
2026-04-24 15:47 55.94522 -3.38092 113 ft 23 kts 239°
2026-04-24 15:47 55.94438 -3.38336 113 ft 24 kts 238°
2026-04-24 15:48 55.94353 -3.38586 113 ft 16 kts 239°
2026-04-24 15:48 55.94298 -3.38746 112 ft 15 kts 239°
2026-04-24 15:48 55.94299 -3.38877 112 ft 11 kts 317°
2026-04-24 15:48 55.94364 -3.38949 113 ft 11 kts 329°
2026-04-24 15:49 55.94429 -3.38928 113 ft 11 kts 49°
2026-04-24 15:49 55.94461 -3.38838 113 ft 8 kts 58°
2026-04-24 15:49 55.94500 -3.38727 111 ft 24 kts 58°
2026-04-24 15:49 55.94713 -3.38100 112 ft 95 kts 59°
2026-04-24 15:50 55.95170 -3.36758 120 ft 155 kts 58°
2026-04-24 15:50 55.95783 -3.34984 589 ft 175 kts 57°
2026-04-24 15:50 55.96576 -3.33269 1349 ft 182 kts 42°
2026-04-24 15:50 55.97581 -3.31753 1963 ft 200 kts 38°
2026-04-24 15:51 55.98695 -3.30189 2307 ft 207 kts 38°
2026-04-24 15:51 55.99874 -3.28570 2487 ft 216 kts 28°
2026-04-24 15:51 56.01287 -3.27938 2858 ft 207 kts 352°
2026-04-24 15:51 56.02524 -3.28920 3303 ft 197 kts 314°
2026-04-24 15:52 56.03218 -3.31063 3429 ft 206 kts 285°
2026-04-24 15:52 56.03317 -3.33672 3504 ft 219 kts 259°
2026-04-24 15:52 56.02915 -3.36384 3615 ft 232 kts 255°
2026-04-24 15:52 56.02470 -3.39261 3890 ft 240 kts 255°
2026-04-24 15:53 56.02044 -3.42030 4649 ft 229 kts 255°
2026-04-24 15:53 56.01623 -3.44793 5091 ft 231 kts 256°
2026-04-24 15:53 56.01214 -3.47650 5269 ft 244 kts 257°
2026-04-24 15:53 56.00786 -3.50680 5407 ft 257 kts 256°
2026-04-24 15:54 56.00338 -3.53838 5679 ft 264 kts 256°
2026-04-24 15:54 55.99888 -3.57003 6075 ft 267 kts 256°
2026-04-24 15:54 55.99426 -3.60235 6518 ft 267 kts 256°
2026-04-24 15:54 55.98962 -3.63473 6903 ft 269 kts 256°
2026-04-24 15:55 55.98499 -3.66703 7446 ft 272 kts 257°
2026-04-24 15:55 55.98030 -3.69971 8084 ft 272 kts 257°
2026-04-24 15:55 55.97413 -3.73190 8637 ft 278 kts 239°
2026-04-24 15:55 55.95967 -3.75498 9196 ft 288 kts 206°
2026-04-24 15:56 55.94018 -3.76404 9921 ft 292 kts 188°
2026-04-24 15:56 55.92002 -3.76667 10490 ft 298 kts 184°
2026-04-24 15:56 55.89847 -3.76799 10686 ft 322 kts 183°
2026-04-24 15:56 55.87499 -3.76908 10916 ft 351 kts 183°
2026-04-24 15:57 55.84963 -3.77032 11200 ft 376 kts 183°
2026-04-24 15:57 55.82319 -3.77176 11821 ft 382 kts 183°
2026-04-24 15:57 55.79645 -3.77336 12418 ft 386 kts 183°
2026-04-24 15:57 55.76942 -3.77513 13046 ft 390 kts 184°
2026-04-24 15:58 55.74247 -3.77698 13593 ft 397 kts 184°
2026-04-24 15:58 55.71438 -3.77897 13844 ft 411 kts 184°
2026-04-24 15:58 55.68548 -3.78106 14291 ft 417 kts 184°
2026-04-24 15:58 55.65638 -3.78312 14918 ft 418 kts 183°
2026-04-24 15:59 55.62720 -3.78515 15568 ft 419 kts 183°
2026-04-24 15:59 55.59794 -3.78721 16184 ft 422 kts 183°
2026-04-24 15:59 55.56850 -3.78931 16758 ft 424 kts 183°
2026-04-24 15:59 55.53923 -3.79140 17326 ft 427 kts 183°
2026-04-24 16:00 55.50937 -3.79355 17889 ft 430 kts 183°
2026-04-24 16:00 55.47941 -3.79570 18449 ft 432 kts 183°
2026-04-24 16:00 55.44918 -3.79787 18936 ft 435 kts 182°
2026-04-24 16:00 55.41876 -3.80005 19375 ft 438 kts 182°
2026-04-24 16:01 55.38845 -3.80222 19806 ft 442 kts 182°
2026-04-24 16:01 55.35758 -3.80443 20235 ft 445 kts 182°
2026-04-24 16:01 55.32639 -3.80665 20672 ft 448 kts 182°
2026-04-24 16:01 55.29506 -3.80888 21092 ft 451 kts 182°
2026-04-24 16:02 55.26356 -3.81112 21496 ft 454 kts 182°
2026-04-24 16:02 55.23179 -3.81135 21898 ft 457 kts 175°
2026-04-24 16:02 55.20026 -3.80314 22299 ft 460 kts 165°
2026-04-24 16:02 55.16994 -3.78705 22692 ft 462 kts 161°
2026-04-24 16:03 55.13928 -3.76949 23050 ft 465 kts 161°
2026-04-24 16:03 55.10841 -3.75190 23422 ft 468 kts 161°
2026-04-24 16:03 55.07731 -3.73440 23870 ft 467 kts 161°
2026-04-24 16:03 55.04660 -3.71736 24697 ft 457 kts 162°
2026-04-24 16:04 55.01670 -3.70093 25196 ft 456 kts 162°
2026-04-24 16:04 54.98614 -3.68424 25311 ft 465 kts 162°
2026-04-24 16:04 54.95486 -3.66722 25386 ft 473 kts 162°
2026-04-24 16:04 54.92305 -3.64996 25445 ft 481 kts 162°
2026-04-24 16:05 54.85898 -3.61529 25957 ft 486 kts 162°
2026-04-24 16:05 54.82663 -3.59783 26288 ft 486 kts 162°
2026-04-24 16:06 54.75423 -3.55883 27176 ft 484 kts 162°
2026-04-24 16:06 54.62542 -3.48976 28651 ft 484 kts 162°
2026-04-24 16:06 54.37028 -3.35433 31330 ft 484 kts 163°